datetime,pool elevation
1915-03-21,4261.1
1915-03-22,4261.4
1915-03-23,4261.8
1915-03-24,4262.1
1915-03-25,4262.5
1915-03-26,4262.7
1915-03-27,4262.8
1915-03-28,4262.8
1915-03-29,4262.9
1915-03-30,4263.3
1915-03-31,4263.8
1915-04-01,4264.5
1915-04-02,4265.2
1915-04-03,4265.9
1915-04-04,4266.3
1915-04-05,4266.6
1915-04-06,4266.9
1915-04-07,4267.2
1915-04-08,4267.8
1915-04-09,4269.0
1915-04-10,4270.0
1915-04-11,4271.2
1915-04-12,4272.7
1915-04-13,4273.0
1915-04-14,4273.9
1915-04-15,4274.6
1915-04-16,4275.6
1915-04-17,4276.8
1915-04-18,4278.5
1915-04-19,4281.0
1915-04-20,4283.6
1915-04-21,4286.2
1915-04-22,4288.1
1915-04-23,4289.5
1915-04-24,4291.0
1915-04-25,4292.2
1915-04-26,4293.3
1915-04-27,4294.2
1915-04-28,4294.9
1915-04-29,4295.6
1915-04-30,4296.0
1915-05-01,4296.7
1915-05-02,4298.0
1915-05-03,4299.2
1915-05-04,4300.5
1915-05-05,4301.6
1915-05-06,4302.5
1915-05-07,4303.3
1915-05-08,4303.9
1915-05-09,4304.3
1915-05-10,4304.5
1915-05-11,4305.0
1915-05-12,4305.3
1915-05-13,4305.5
1915-05-14,4305.7
1915-05-15,4306.0
1915-05-16,4306.6
1915-05-17,4307.5
1915-05-18,4308.5
1915-05-19,4309.6
1915-05-20,4310.9
1915-05-21,4312.0
1915-05-22,4313.1
1915-05-23,4314.0
1915-05-24,4314.6
1915-05-25,4315.0
1915-05-26,4315.0
1915-05-27,4315.2
1915-05-28,4315.4
1915-05-29,4315.6
1915-05-30,4315.7
1915-05-31,4315.9
1915-06-01,4316.1
1915-06-02,4316.3
1915-06-03,4317.1
1915-06-04,4317.4
1915-06-05,4317.7
1915-06-06,4318.2
1915-06-07,4318.5
1915-06-08,4318.9
1915-06-09,4319.1
1915-06-10,4319.2
1915-06-11,4319.3
1915-06-12,4319.5
1915-06-13,4319.5
1915-06-14,4319.6
1915-06-15,4319.6
1915-06-16,4319.7
1915-06-17,4319.8
1915-06-18,4319.8
1915-06-19,4319.9
1915-06-20,4319.6
1915-06-21,4319.4
1915-06-22,4319.5
1915-06-23,4319.8
1915-06-24,4320.0
1915-06-25,4320.2
1915-06-26,4320.5
1915-06-27,4320.5
1915-06-28,4320.4
1915-06-29,4320.3
1915-06-30,4320.2
1915-07-01,4320.0
1915-07-02,4319.9
1915-07-03,4319.9
1915-07-04,4319.9
1915-07-05,4319.8
1915-07-06,4319.6
1915-07-07,4319.4
1915-07-08,4319.2
1915-07-09,4319.0
1915-07-10,4318.8
1915-07-11,4318.5
1915-07-12,4318.3
1915-07-13,4318.0
1915-07-14,4317.8
1915-07-15,4317.6
1915-07-16,4317.3
1915-07-17,4317.1
1915-07-18,4316.9
1915-07-19,4316.6
1915-07-20,4316.4
1915-07-21,4316.3
1915-07-22,4316.3
1915-07-23,4316.1
1915-07-24,4316.3
1915-07-25,4317.1
1915-07-26,4317.7
1915-07-27,4319.0
1915-07-28,4320.4
1915-07-29,4320.7
1915-07-30,4321.8
1915-07-31,4321.6
1915-08-01,4321.5
1915-08-02,4321.5
1915-08-03,4321.4
1915-08-04,4321.8
1915-08-05,4321.1
1915-08-06,4321.0
1915-08-07,4320.9
1915-08-08,4320.8
1915-08-09,4320.6
1915-08-10,4320.2
1915-08-11,4320.0
1915-08-12,4319.8
1915-08-13,4319.8
1915-08-14,4319.6
1915-08-15,4319.5
1915-08-16,4319.3
1915-08-17,4319.0
1915-08-18,4318.8
1915-08-19,4318.5
1915-08-20,4318.3
1915-08-21,4318.0
1915-08-22,4317.6
1915-08-23,4317.3
1915-08-24,4317.0
1915-08-25,4317.0
1915-08-26,4316.7
1915-08-27,4316.6
1915-08-28,4316.4
1915-08-29,4316.1
1915-08-30,4315.8
1915-08-31,4315.5
1915-09-01,4315.2
1915-09-02,4314.8
1915-09-03,4314.5
1915-09-04,4314.2
1915-09-05,4314.0
1915-09-06,4313.9
1915-09-07,4313.7
1915-09-08,4313.4
1915-09-09,4313.1
1915-09-10,4312.7
1915-09-11,4312.5
1915-09-12,4312.1
1915-09-13,4311.9
1915-09-14,4317.5
1915-09-15,4311.6
1915-09-16,4311.2
1915-09-17,4311.0
1915-09-18,4310.8
1915-09-19,4310.6
1915-09-20,4310.6
1915-09-21,4310.5
1915-09-22,4310.3
1915-09-23,4310.0
1915-09-24,4309.8
1915-09-25,4309.6
1915-09-26,4309.3
1915-09-27,4309.1
1915-09-28,4309.2
1915-09-29,4309.3
1915-09-30,4309.2
1915-10-01,4309.0
1915-10-02,4308.9
1915-10-03,4308.7
1915-10-04,4308.6
1915-10-05,4308.5
1915-10-06,4308.3
1915-10-07,4308.2
1915-10-08,4308.1
1915-10-09,4307.1
1915-10-10,4307.7
1915-10-11,4307.6
1915-10-12,4307.5
1915-10-13,4307.4
1915-10-14,4307.4
1915-10-15,4307.3
1915-10-16,4307.3
1915-10-17,4307.2
1915-10-18,4307.2
1915-10-19,4307.2
1915-10-20,4307.2
1915-10-21,4307.2
1915-10-22,4307.2
1915-10-23,4307.3
1915-10-24,4307.3
1915-10-25,4307.3
1915-10-26,4307.3
1915-10-27,4307.3
1915-10-28,4307.3
1915-10-29,4307.3
1915-10-30,4307.3
1915-10-31,4307.3
1915-11-01,4307.3
1915-11-02,4307.3
1915-11-03,4307.4
1915-11-04,4307.4
1915-11-05,4307.4
1915-11-06,4307.4
1915-11-07,4307.5
1915-11-08,4307.5
1915-11-09,4307.6
1915-11-10,4307.6
1915-11-11,4307.6
1915-11-12,4307.6
1915-11-13,4307.6
1915-11-14,4307.7
1915-11-15,4307.7
1915-11-16,4307.7
1915-11-17,4307.7
1915-11-18,4307.8
1915-11-19,4307.8
1915-11-20,4307.8
1915-11-21,4307.8
1915-11-22,4308.0
1915-11-23,4308.1
1915-11-24,4308.1
1915-11-25,4308.0
1915-11-26,4307.8
1915-11-27,4307.6
1915-11-28,4307.5
1915-11-29,4307.4
1915-11-30,4307.3
1915-12-01,4307.2
1915-12-02,4307.2
1915-12-03,4307.0
1915-12-04,4306.9
1915-12-05,4306.8
1915-12-06,4306.7
1915-12-07,4306.6
1915-12-08,4306.7
1915-12-09,4306.9
1915-12-10,4307.0
1915-12-11,4307.1
1915-12-12,4307.2
1915-12-13,4307.2
1915-12-14,4307.2
1915-12-15,4307.2
1915-12-16,4307.3
1915-12-17,4307.4
1915-12-18,4307.3
1915-12-19,4307.3
1915-12-20,4307.3
1915-12-21,4307.3
1915-12-22,4307.3
1915-12-23,4307.4
1915-12-24,4307.4
1915-12-25,4307.4
1915-12-26,4307.4
1915-12-27,4307.5
1915-12-28,4307.5
1915-12-29,4307.6
1915-12-30,4307.6
1915-12-31,4307.6
1916-01-01,4307.7
1916-01-02,4307.7
1916-01-03,4307.7
1916-01-04,4307.9
1916-01-05,4308.1
1916-01-06,4308.2
1916-01-07,4308.3
1916-01-08,4308.3
1916-01-09,4308.5
1916-01-10,4308.6
1916-01-11,4308.7
1916-01-12,4308.7
1916-01-13,4308.8
1916-01-14,4308.9
1916-01-15,4309.0
1916-01-16,4309.1
1916-01-17,4309.3
1916-01-18,4309.4
1916-01-19,4309.5
1916-01-20,4309.7
1916-01-21,4310.0
1916-01-22,4310.3
1916-01-23,4310.6
1916-01-24,4310.9
1916-01-25,4311.1
1916-01-26,4311.3
1916-01-27,4311.4
1916-01-28,4311.5
1916-01-29,4311.6
1916-01-30,4311.7
1916-01-31,4311.9
1916-02-01,4312.1
1916-02-02,4312.2
1916-02-03,4312.2
1916-02-04,4312.2
1916-02-05,4312.2
1916-02-06,4312.1
1916-02-07,4312.1
1916-02-08,4312.2
1916-02-09,4312.3
1916-02-10,4312.3
1916-02-11,4312.2
1916-02-12,4312.1
1916-02-13,4312.0
1916-02-14,4312.0
1916-02-15,4311.9
1916-02-16,4311.9
1916-02-17,4311.8
1916-02-18,4311.9
1916-02-19,4311.8
1916-02-20,4311.8
1916-02-21,4311.8
1916-02-22,4311.9
1916-02-23,4311.9
1916-02-24,4311.9
1916-02-25,4312.0
1916-02-26,4312.1
1916-02-27,4312.1
1916-02-28,4312.1
1916-02-29,
1916-03-01,4312.2
1916-03-02,4312.2
1916-03-03,4312.2
1916-03-04,4312.3
1916-03-05,4312.4
1916-03-06,4312.5
1916-03-07,4312.6
1916-03-08,4312.6
1916-03-09,4312.5
1916-03-10,4312.5
1916-03-11,4312.6
1916-03-12,4312.7
1916-03-13,4312.7
1916-03-14,4312.7
1916-03-15,4312.7
1916-03-16,4313.0
1916-03-17,4313.2
1916-03-18,4313.5
1916-03-19,4313.8
1916-03-20,4314.0
1916-03-21,4314.3
1916-03-22,4314.7
1916-03-23,4315.0
1916-03-24,4315.7
1916-03-25,4316.6
1916-03-26,4317.5
1916-03-27,4318.2
1916-03-28,4319.1
1916-03-29,4318.9
1916-03-30,4319.1
1916-03-31,4319.3
1916-04-01,4319.9
1916-04-02,4320.4
1916-04-03,4320.7
1916-04-04,4321.3
1916-04-05,4321.7
1916-04-06,4321.9
1916-04-07,4322.4
1916-04-08,4322.9
1916-04-09,4323.4
1916-04-10,4323.6
1916-04-11,4323.8
1916-04-12,4324.0
1916-04-13,4324.3
1916-04-14,4324.4
1916-04-15,4324.5
1916-04-16,4324.7
1916-04-17,4324.8
1916-04-18,4325.0
1916-04-19,4325.1
1916-04-20,4325.4
1916-04-21,4325.7
1916-04-22,4326.0
1916-04-23,4326.3
1916-04-24,4326.4
1916-04-25,4326.5
1916-04-26,4326.7
1916-04-27,4326.9
1916-04-28,4327.3
1916-04-29,4327.7
1916-04-30,4328.1
1916-05-01,4329.0
1916-05-02,4329.9
1916-05-03,4330.8
1916-05-04,4331.6
1916-05-05,4332.3
1916-05-06,4332.7
1916-05-07,4333.3
1916-05-08,4333.9
1916-05-09,4334.7
1916-05-10,4335.5
1916-05-11,4336.4
1916-05-12,4337.3
1916-05-13,4338.2
1916-05-14,4339.0
1916-05-15,4340.4
1916-05-16,4341.5
1916-05-17,4342.7
1916-05-18,4343.6
1916-05-19,4344.3
1916-05-20,4344.8
1916-05-21,4345.2
1916-05-22,4345.5
1916-05-23,4345.7
1916-05-24,4345.9
1916-05-25,4346.0
1916-05-26,4346.1
1916-05-27,4346.1
1916-05-28,4346.2
1916-05-29,4346.5
1916-05-30,4346.6
1916-05-31,4346.7
1916-06-01,4346.7
1916-06-02,4346.8
1916-06-03,4346.8
1916-06-04,4346.8
1916-06-05,4346.8
1916-06-06,4346.7
1916-06-07,4346.7
1916-06-08,4346.7
1916-06-09,4346.6
1916-06-10,4346.6
1916-06-11,4346.5
1916-06-12,4346.4
1916-06-13,4346.3
1916-06-14,4346.2
1916-06-15,4346.3
1916-06-16,4346.3
1916-06-17,4346.4
1916-06-18,4346.5
1916-06-19,4346.5
1916-06-20,4346.6
1916-06-21,4346.6
1916-06-22,4346.6
1916-06-23,4346.6
1916-06-24,4346.6
1916-06-25,4346.6
1916-06-26,4346.5
1916-06-27,4346.5
1916-06-28,4346.3
1916-06-29,4346.2
1916-06-30,4346.1
1916-07-01,4345.9
1916-07-02,4345.6
1916-07-03,4345.4
1916-07-04,4345.1
1916-07-05,4344.9
1916-07-06,4344.6
1916-07-07,4344.3
1916-07-08,4344.1
1916-07-09,4343.9
1916-07-10,4343.8
1916-07-11,4343.6
1916-07-12,4343.4
1916-07-13,4343.2
1916-07-14,4343.0
1916-07-15,4342.9
1916-07-16,4342.7
1916-07-17,4342.6
1916-07-18,4342.5
1916-07-19,4342.4
1916-07-20,4342.3
1916-07-21,4342.2
1916-07-22,4342.2
1916-07-23,4342.0
1916-07-24,4341.9
1916-07-25,4341.8
1916-07-26,4341.6
1916-07-27,4341.4
1916-07-28,4341.3
1916-07-29,4341.1
1916-07-30,4341.1
1916-07-31,4341.0
1916-08-01,4341.0
1916-08-02,4341.1
1916-08-03,4341.3
1916-08-04,4341.3
1916-08-05,4341.2
1916-08-06,4341.2
1916-08-07,4341.2
1916-08-08,4341.1
1916-08-09,4341.2
1916-08-10,4341.3
1916-08-11,4341.3
1916-08-12,4341.2
1916-08-13,4341.2
1916-08-14,4341.2
1916-08-15,4341.3
1916-08-16,4341.3
1916-08-17,4341.3
1916-08-18,4341.5
1916-08-19,4341.6
1916-08-20,
1916-08-21,4341.9
1916-08-22,4342.0
1916-08-23,4342.0
1916-08-24,4342.3
1916-08-25,4342.1
1916-08-26,4342.1
1916-08-27,4342.2
1916-08-28,4342.0
1916-08-29,4342.0
1916-08-30,4341.9
1916-08-31,4341.8
1916-09-01,4341.6
1916-09-02,4341.7
1916-09-03,4341.6
1916-09-04,4341.6
1916-09-05,4341.5
1916-09-06,4341.4
1916-09-07,4341.4
1916-09-08,4341.3
1916-09-09,4341.2
1916-09-10,4341.1
1916-09-11,4341.0
1916-09-12,4340.9
1916-09-13,4340.8
1916-09-14,4340.7
1916-09-15,4340.6
1916-09-16,4340.5
1916-09-17,4340.3
1916-09-18,4340.2
1916-09-19,4340.1
1916-09-20,4340.0
1916-09-21,4339.9
1916-09-22,4339.7
1916-09-23,4339.6
1916-09-24,4339.6
1916-09-25,4339.4
1916-09-26,4339.2
1916-09-27,4339.0
1916-09-28,4338.9
1916-09-29,4338.7
1916-09-30,4338.5
1916-10-01,4338.4
1916-10-02,4338.2
1916-10-03,4338.0
1916-10-04,4337.8
1916-10-05,4337.6
1916-10-06,4337.5
1916-10-07,4337.3
1916-10-08,4337.3
1916-10-09,4337.2
1916-10-10,4336.9
1916-10-11,4336.8
1916-10-12,4336.9
1916-10-13,4337.0
1916-10-14,4337.6
1916-10-15,
1916-10-16,4340.5
1916-10-17,4340.5
1916-10-18,4342.2
1916-10-19,4342.7
1916-10-20,4343.0
1916-10-21,4343.5
1916-10-22,
1916-10-23,4344.2
1916-10-24,4344.4
1916-10-25,4344.7
1916-10-26,4344.9
1916-10-27,4345.1
1916-10-28,4345.4
1916-10-29,
1916-10-30,4345.8
1916-10-31,4346.0
1916-11-01,4346.2
1916-11-02,4346.5
1916-11-03,4346.7
1916-11-04,4346.8
1916-11-05,
1916-11-06,4347.2
1916-11-07,4347.4
1916-11-08,4347.5
1916-11-09,4347.6
1916-11-10,4347.7
1916-11-11,4347.8
1916-11-12,
1916-11-13,4348.1
1916-11-14,4348.2
1916-11-15,4348.5
1916-11-16,4348.4
1916-11-17,4348.5
1916-11-18,4348.6
1916-11-19,
1916-11-20,4348.6
1916-11-21,4349.0
1916-11-22,4349.0
1916-11-23,4349.1
1916-11-24,4349.2
1916-11-25,4349.3
1916-11-26,
1916-11-27,4349.5
1916-11-28,4349.4
1916-11-29,4349.4
1916-11-30,4349.4
1916-12-01,4349.3
1916-12-02,4349.2
1916-12-03,
1916-12-04,4349.1
1916-12-05,4349.0
1916-12-06,4348.8
1916-12-07,4348.6
1916-12-08,4348.3
1916-12-09,4348.2
1916-12-10,
1916-12-11,4348.1
1916-12-12,4347.9
1916-12-13,4347.8
1916-12-14,4347.7
1916-12-15,4347.5
1916-12-16,4347.3
1916-12-17,
1916-12-18,4347.0
1916-12-19,4346.8
1916-12-20,4346.7
1916-12-21,4346.5
1916-12-22,4346.4
1916-12-23,4346.3
1916-12-24,
1916-12-25,4345.7
1916-12-26,4345.9
1916-12-27,4345.9
1916-12-28,4345.9
1916-12-29,4345.9
1916-12-30,4345.4
1916-12-31,4345.2
1917-01-01,4344.9
1917-01-02,4344.7
1917-01-03,4344.4
1917-01-04,4344.1
1917-01-05,4344.0
1917-01-06,4343.9
1917-01-07,
1917-01-08,4343.7
1917-01-09,4343.5
1917-01-10,4343.4
1917-01-11,4343.3
1917-01-12,4343.2
1917-01-13,4343.1
1917-01-14,
1917-01-15,4342.7
1917-01-16,4342.7
1917-01-17,4342.5
1917-01-18,4342.4
1917-01-19,4342.3
1917-01-20,4342.3
1917-01-21,
1917-01-22,4342.5
1917-01-23,4342.6
1917-01-24,4342.7
1917-01-25,4342.8
1917-01-26,4342.8
1917-01-27,4342.8
1917-01-28,4342.8
1917-01-29,4342.7
1917-01-30,4342.6
1917-01-31,4342.4
1917-02-01,4342.3
1917-02-02,4342.1
1917-02-03,4341.9
1917-02-04,4341.8
1917-02-05,4341.6
1917-02-06,4341.5
1917-02-07,4341.4
1917-02-08,4341.2
1917-02-09,4341.0
1917-02-10,4340.9
1917-02-11,
1917-02-12,4340.6
1917-02-13,4340.5
1917-02-14,4340.3
1917-02-15,4340.2
1917-02-16,4340.0
1917-02-17,4339.9
1917-02-18,
1917-02-19,4339.6
1917-02-20,4339.5
1917-02-21,4339.4
1917-02-22,4339.2
1917-02-23,4339.1
1917-02-24,
1917-02-25,
1917-02-26,4338.7
1917-02-27,4338.5
1917-02-28,4338.4
1917-03-01,4338.6
1917-03-02,4338.0
1917-03-03,4338.0
1917-03-04,
1917-03-05,4337.9
1917-03-06,4337.8
1917-03-07,4337.7
1917-03-08,4337.6
1917-03-09,4337.4
1917-03-10,4337.2
1917-03-11,
1917-03-12,4336.9
1917-03-13,4336.7
1917-03-14,4336.6
1917-03-15,4336.4
1917-03-16,4336.2
1917-03-17,4336.1
1917-03-18,
1917-03-19,4335.8
1917-03-20,4335.6
1917-03-21,4335.5
1917-03-22,4334.3
1917-03-23,4335.1
1917-03-24,4334.9
1917-03-25,
1917-03-26,4334.5
1917-03-27,4334.4
1917-03-28,4334.3
1917-03-29,4334.2
1917-03-30,4334.0
1917-03-31,4333.8
1917-04-01,4333.6
1917-04-02,4333.4
1917-04-03,4333.3
1917-04-04,4333.4
1917-04-05,4333.4
1917-04-06,4333.3
1917-04-07,4333.2
1917-04-08,
1917-04-09,4333.0
1917-04-10,4332.8
1917-04-11,4332.7
1917-04-12,4332.6
1917-04-13,4332.5
1917-04-14,4332.5
1917-04-15,
1917-04-16,4332.3
1917-04-17,4332.2
1917-04-18,4332.2
1917-04-19,4332.2
1917-04-20,4332.3
1917-04-21,4332.3
1917-04-22,
1917-04-23,4332.4
1917-04-24,4332.3
1917-04-25,4332.2
1917-04-26,4332.1
1917-04-27,4331.9
1917-04-28,4331.8
1917-04-29,
1917-04-30,4332.2
1917-05-01,4332.6
1917-05-02,4332.8
1917-05-03,4333.0
1917-05-04,4333.1
1917-05-05,4333.0
1917-05-06,
1917-05-07,4332.8
1917-05-08,4332.7
1917-05-09,4332.7
1917-05-10,4332.7
1917-05-11,4332.6
1917-05-12,4332.6
1917-05-13,
1917-05-14,4332.6
1917-05-15,4332.5
1917-05-16,4332.4
1917-05-17,4332.3
1917-05-18,4332.4
1917-05-19,4332.7
1917-05-20,
1917-05-21,4334.1
1917-05-22,4335.0
1917-05-23,4335.9
1917-05-24,4336.6
1917-05-25,4337.2
1917-05-26,4337.7
1917-05-27,
1917-05-28,4338.5
1917-05-29,4338.9
1917-05-30,4339.1
1917-05-31,4339.3
1917-06-01,4339.5
1917-06-02,4339.6
1917-06-03,
1917-06-04,4340.0
1917-06-05,4340.3
1917-06-06,4340.4
1917-06-07,4340.6
1917-06-08,4340.7
1917-06-09,4341.2
1917-06-10,
1917-06-11,4341.8
1917-06-12,4342.1
1917-06-13,4342.5
1917-06-14,4343.0
1917-06-15,4343.6
1917-06-16,4344.1
1917-06-17,
1917-06-18,4345.3
1917-06-19,4346.0
1917-06-20,4346.6
1917-06-21,4347.2
1917-06-22,4347.8
1917-06-23,4348.4
1917-06-24,
1917-06-25,4349.7
1917-06-26,4350.1
1917-06-27,4350.6
1917-06-28,4351.0
1917-06-29,4351.4
1917-06-30,4351.7
1917-07-01,4352.0
1917-07-02,4352.3
1917-07-03,4352.5
1917-07-04,
1917-07-05,4353.0
1917-07-06,4353.2
1917-07-07,4353.3
1917-07-08,
1917-07-09,4353.7
1917-07-10,
1917-07-11,4353.8
1917-07-12,4353.8
1917-07-13,4353.8
1917-07-14,4353.8
1917-07-15,
1917-07-16,4353.7
1917-07-17,4353.6
1917-07-18,4353.5
1917-07-19,4353.4
1917-07-20,4353.3
1917-07-21,4353.1
1917-07-22,
1917-07-23,4352.8
1917-07-24,4352.5
1917-07-25,4352.3
1917-07-26,4352.1
1917-07-27,4351.8
1917-07-28,4351.6
1917-07-29,
1917-07-30,4351.0
1917-07-31,4350.7
1917-08-01,4350.5
1917-08-02,4350.2
1917-08-03,4349.9
1917-08-04,4349.6
1917-08-05,
1917-08-06,4349.1
1917-08-07,4348.9
1917-08-08,4348.7
1917-08-09,4348.5
1917-08-10,4348.2
1917-08-11,4348.0
1917-08-12,
1917-08-13,4347.5
1917-08-14,4347.5
1917-08-15,4347.1
1917-08-16,4346.8
1917-08-17,4346.6
1917-08-18,4346.4
1917-08-19,
1917-08-20,4346.2
1917-08-21,4346.1
1917-08-22,4346.0
1917-08-23,4346.0
1917-08-24,4346.0
1917-08-25,4345.8
1917-08-26,
1917-08-27,4345.3
1917-08-28,4345.1
1917-08-29,4344.8
1917-08-30,4344.5
1917-08-31,4344.3
1917-09-01,4344.0
1917-09-02,
1917-09-03,4343.5
1917-09-04,4343.3
1917-09-05,4343.1
1917-09-06,4342.8
1917-09-07,4342.5
1917-09-08,4342.3
1917-09-09,
1917-09-10,4341.8
1917-09-11,4341.6
1917-09-12,4341.3
1917-09-13,4341.1
1917-09-14,4340.8
1917-09-15,4340.6
1917-09-16,
1917-09-17,4340.2
1917-09-18,4340.0
1917-09-19,4339.9
1917-09-20,4339.7
1917-09-21,4339.5
1917-09-22,4339.3
1917-09-23,
1917-09-24,4338.8
1917-09-25,4338.6
1917-09-26,4338.3
1917-09-27,4338.1
1917-09-28,4337.8
1917-09-29,4337.6
1917-09-30,4337.3
1917-10-01,4337.0
1917-10-02,4336.8
1917-10-03,4336.5
1917-10-04,4336.3
1917-10-05,4336.0
1917-10-06,4335.7
1917-10-07,
1917-10-08,4335.3
1917-10-09,4335.0
1917-10-10,4334.7
1917-10-11,4334.5
1917-10-12,4334.2
1917-10-13,4333.9
1917-10-14,
1917-10-15,4333.4
1917-10-16,4333.2
1917-10-17,4332.9
1917-10-18,4332.6
1917-10-19,4332.3
1917-10-20,4332.0
1917-10-21,
1917-10-22,4331.5
1917-10-23,4331.2
1917-10-24,4331.0
1917-10-25,4330.7
1917-10-26,4330.5
1917-10-27,4330.2
1917-10-28,
1917-10-29,4329.6
1917-10-30,4329.3
1917-10-31,4329.1
1917-11-01,4328.9
1917-11-02,4328.9
1917-11-03,4328.9
1917-11-04,
1917-11-05,4328.9
1917-11-06,4328.9
1917-11-07,4328.9
1917-11-08,4328.9
1917-11-09,4328.9
1917-11-10,4328.9
1917-11-11,
1917-11-12,4328.9
1917-11-13,4328.9
1917-11-14,4328.9
1917-11-15,4329.0
1917-11-16,4328.9
1917-11-17,4328.6
1917-11-18,
1917-11-19,4328.1
1917-11-20,4327.5
1917-11-21,4327.4
1917-11-22,4327.4
1917-11-23,4327.1
1917-11-24,4326.9
1917-11-25,
1917-11-26,4326.4
1917-11-27,4326.2
1917-11-28,4326.0
1917-11-29,4325.7
1917-11-30,4325.5
1917-12-01,4325.3
1917-12-02,
1917-12-03,4324.8
1917-12-04,4324.6
1917-12-05,4324.3
1917-12-06,4324.1
1917-12-07,4323.9
1917-12-08,4323.6
1917-12-09,
1917-12-10,4323.2
1917-12-11,4322.9
1917-12-12,4322.7
1917-12-13,4322.5
1917-12-14,4322.3
1917-12-15,4322.0
1917-12-16,
1917-12-17,4322.1
1917-12-18,4322.0
1917-12-19,4322.3
1917-12-20,4322.4
1917-12-21,4322.4
1917-12-22,4322.5
1917-12-23,
1917-12-24,4322.7
1917-12-25,4322.8
1917-12-26,4322.9
1917-12-27,4322.9
1917-12-28,4323.0
1917-12-29,4323.1
1917-12-30,
1917-12-31,4323.2
1918-01-01,4323.3
1918-01-02,4323.4
1918-01-03,4323.5
1918-01-04,4323.6
1918-01-05,4323.7
1918-01-06,
1918-01-07,4323.8
1918-01-08,4323.8
1918-01-09,4323.9
1918-01-10,4324.0
1918-01-11,4324.1
1918-01-12,4324.1
1918-01-13,
1918-01-14,4324.2
1918-01-15,4324.4
1918-01-16,4324.4
1918-01-17,4324.4
1918-01-18,4324.5
1918-01-19,
1918-01-20,
1918-01-21,4324.7
1918-01-22,4324.7
1918-01-23,4324.8
1918-01-24,4324.8
1918-01-25,4324.8
1918-01-26,4324.8
1918-01-27,
1918-01-28,4324.9
1918-01-29,4325.0
1918-01-30,4325.2
1918-01-31,4325.3
1918-02-01,4325.4
1918-02-02,4325.5
1918-02-03,4325.5
1918-02-04,4325.6
1918-02-05,4325.7
1918-02-06,4325.7
1918-02-07,4325.8
1918-02-08,4325.9
1918-02-09,4325.9
1918-02-10,4325.9
1918-02-11,4326.0
1918-02-12,4326.0
1918-02-13,4326.1
1918-02-14,4326.2
1918-02-15,4326.2
1918-02-16,4326.0
1918-02-17,4325.8
1918-02-18,4325.6
1918-02-19,4325.3
1918-02-20,4325.0
1918-02-21,4324.8
1918-02-22,4324.7
1918-02-23,4324.6
1918-02-24,4324.2
1918-02-25,4323.8
1918-02-26,4323.5
1918-02-27,4323.3
1918-02-28,4323.0
1918-03-01,4322.8
1918-03-02,4322.5
1918-03-03,4322.4
1918-03-04,4322.3
1918-03-05,4322.2
1918-03-06,4322.0
1918-03-07,4321.9
1918-03-08,4321.7
1918-03-09,4321.5
1918-03-10,4321.4
1918-03-11,4321.3
1918-03-12,4321.3
1918-03-13,4321.4
1918-03-14,4321.5
1918-03-15,4321.6
1918-03-16,4321.5
1918-03-17,4321.5
1918-03-18,4321.4
1918-03-19,4321.5
1918-03-20,4321.4
1918-03-21,4321.4
1918-03-22,4321.5
1918-03-23,4321.2
1918-03-24,4321.2
1918-03-25,4321.2
1918-03-26,4321.1
1918-03-27,4321.0
1918-03-28,4320.9
1918-03-29,4320.9
1918-03-30,4320.8
1918-03-31,4320.7
1918-04-01,4320.6
1918-04-02,4320.5
1918-04-03,4320.4
1918-04-04,4320.2
1918-04-05,4320.1
1918-04-06,4320.1
1918-04-07,4320.0
1918-04-08,4319.9
1918-04-09,4319.6
1918-04-10,4319.5
1918-04-11,4319.4
1918-04-12,4319.1
1918-04-13,4318.9
1918-04-14,4318.8
1918-04-15,4318.7
1918-04-16,4318.3
1918-04-17,4318.2
1918-04-18,4318.0
1918-04-19,4317.8
1918-04-20,4317.7
1918-04-21,4317.5
1918-04-22,4317.5
1918-04-23,4317.2
1918-04-24,4317.1
1918-04-25,4317.0
1918-04-26,4316.8
1918-04-27,4316.5
1918-04-28,4316.3
1918-04-29,4316.0
1918-04-30,4315.8
1918-05-01,4315.9
1918-05-02,4315.3
1918-05-03,4315.1
1918-05-04,4315.0
1918-05-05,4315.0
1918-05-06,4315.0
1918-05-07,4314.9
1918-05-08,4315.1
1918-05-09,4315.0
1918-05-10,4315.3
1918-05-11,4315.5
1918-05-12,4315.7
1918-05-13,4316.0
1918-05-14,4316.3
1918-05-15,4316.6
1918-05-16,4316.7
1918-05-17,4316.7
1918-05-18,4316.7
1918-05-19,4316.8
1918-05-20,4316.9
1918-05-21,4317.1
1918-05-22,4317.1
1918-05-23,4317.2
1918-05-24,4317.2
1918-05-25,4317.2
1918-05-26,4317.2
1918-05-27,4317.2
1918-05-28,4317.1
1918-05-29,4317.1
1918-05-30,4317.1
1918-05-31,4317.0
1918-06-01,4317.0
1918-06-02,
1918-06-03,
1918-06-04,4316.7
1918-06-05,4316.5
1918-06-06,4316.4
1918-06-07,4316.2
1918-06-08,4316.1
1918-06-09,
1918-06-10,4315.7
1918-06-11,4315.5
1918-06-12,4315.5
1918-06-13,4315.4
1918-06-14,4315.4
1918-06-15,4315.4
1918-06-16,
1918-06-17,4315.2
1918-06-18,4315.2
1918-06-19,4315.2
1918-06-20,
1918-06-21,4315.1
1918-06-22,4315.0
1918-06-23,
1918-06-24,4314.8
1918-06-25,4314.7
1918-06-26,4314.6
1918-06-27,4314.5
1918-06-28,4314.4
1918-06-29,4314.3
1918-06-30,4314.1
1918-07-01,4313.9
1918-07-02,4313.7
1918-07-03,4313.4
1918-07-04,4313.2
1918-07-05,4312.9
1918-07-06,4312.7
1918-07-07,4312.2
1918-07-08,
1918-07-09,4311.9
1918-07-10,4311.8
1918-07-11,4311.7
1918-07-12,4311.5
1918-07-13,4311.2
1918-07-14,4310.9
1918-07-15,4310.7
1918-07-16,4310.4
1918-07-17,4310.2
1918-07-18,4309.9
1918-07-19,4309.6
1918-07-20,4309.3
1918-07-21,4308.9
1918-07-22,4308.6
1918-07-23,4308.3
1918-07-24,4308.1
1918-07-25,4307.8
1918-07-26,4307.6
1918-07-27,4307.5
1918-07-28,
1918-07-29,4307.6
1918-07-30,4307.4
1918-07-31,4307.1
1918-08-01,4306.9
1918-08-02,
1918-08-03,4306.3
1918-08-04,
1918-08-05,4305.5
1918-08-06,4305.1
1918-08-07,4304.8
1918-08-08,
1918-08-09,4304.1
1918-08-10,4303.8
1918-08-11,
1918-08-12,4303.3
1918-08-13,
1918-08-14,4302.7
1918-08-15,4302.4
1918-08-16,4302.3
1918-08-17,4302.2
1918-08-18,4302.1
1918-08-19,4302.1
1918-08-20,4301.8
1918-08-21,4301.8
1918-08-22,4301.6
1918-08-23,4301.3
1918-08-24,4301.0
1918-08-25,4300.7
1918-08-26,4300.5
1918-08-27,4300.3
1918-08-28,4300.0
1918-08-29,4299.7
1918-08-30,4299.4
1918-08-31,4299.2
1918-09-01,4298.7
1918-09-02,4298.7
1918-09-03,4298.4
1918-09-04,4298.6
1918-09-05,4297.9
1918-09-06,4297.6
1918-09-07,4297.3
1918-09-08,
1918-09-09,4296.7
1918-09-10,4296.4
1918-09-11,4296.1
1918-09-12,4295.8
1918-09-13,4295.3
1918-09-14,4294.9
1918-09-15,
1918-09-16,4294.2
1918-09-17,4293.9
1918-09-18,4293.5
1918-09-19,4293.0
1918-09-20,4292.6
1918-09-21,4292.1
1918-09-22,
1918-09-23,4291.8
1918-09-24,4291.8
1918-09-25,4291.8
1918-09-26,4291.8
1918-09-27,4291.5
1918-09-28,4291.0
1918-09-29,
1918-09-30,4290.3
1918-10-01,4290.2
1918-10-02,4289.8
1918-10-03,4289.5
1918-10-04,4289.2
1918-10-05,4289.0
1918-10-06,
1918-10-07,4288.5
1918-10-08,4288.3
1918-10-09,4288.0
1918-10-10,4287.6
1918-10-11,4287.4
1918-10-12,4287.2
1918-10-13,
1918-10-14,4286.6
1918-10-15,4286.4
1918-10-16,4286.1
1918-10-17,4285.6
1918-10-18,4285.5
1918-10-19,4286.0
1918-10-20,4286.3
1918-10-21,4286.5
1918-10-22,4286.6
1918-10-23,4286.7
1918-10-24,4287.1
1918-10-25,4287.5
1918-10-26,4287.6
1918-10-27,4287.6
1918-10-28,4287.8
1918-10-29,4287.9
1918-10-30,4288.0
1918-10-31,4288.2
1918-11-01,4288.3
1918-11-02,4288.1
1918-11-03,4287.8
1918-11-04,4287.6
1918-11-05,4287.6
1918-11-06,4287.5
1918-11-07,4287.2
1918-11-08,4286.8
1918-11-09,4286.5
1918-11-10,4286.4
1918-11-11,4286.3
1918-11-12,4286.2
1918-11-13,4286.3
1918-11-14,4286.3
1918-11-15,4286.0
1918-11-16,4286.3
1918-11-17,4286.3
1918-11-18,4286.3
1918-11-19,4286.4
1918-11-20,4286.6
1918-11-21,4286.7
1918-11-22,4286.8
1918-11-23,4287.1
1918-11-24,4287.2
1918-11-25,4287.4
1918-11-26,4287.4
1918-11-27,4287.4
1918-11-28,4287.6
1918-11-29,4287.6
1918-11-30,4287.7
1918-12-01,4287.8
1918-12-02,4288.1
1918-12-03,4288.2
1918-12-04,4288.3
1918-12-05,4288.4
1918-12-06,4288.5
1918-12-07,4288.6
1918-12-08,4288.8
1918-12-09,4289.1
1918-12-10,4289.2